Simultaneous Nadir Overpasses (SNOs) Predictions

Prediction of SNOs between AQUA and METOP-B Satellite Orbit:

Table of predicted SNOs for the next 14.0 days since TLE Epoch: 5/17/2013
Index Date (AQUA) Time (AQUA) Lat,Lon (AQUA) SZA (AQUA ) Date (METOP-B) Time (METOP-B) Lat,Lon (METOP-B) SZA (METOP-B ) Distance(km) Time Diff (sec)
1 05/20/2013 09:08:14 -73.75,-142.49 126.33 05/20/2013 09:07:11 -73.73,-142.41 126.34 3.02 63
2 05/20/2013 09:57:42 73.77, 25.08 53.69 05/20/2013 09:57:50 73.79, 25.07 53.71 2.46 8
3 05/20/2013 10:47:14 -74.10,-168.01 125.97 05/20/2013 10:48:25 -74.11,-166.84 126.00 35.75 71
4 05/23/2013 04:42:30 -73.70, -75.97 126.94 05/23/2013 04:41:35 -73.72, -76.03 126.91 2.85 55
5 05/23/2013 05:31:59 73.79, 91.48 53.15 05/23/2013 05:32:14 73.78, 91.45 53.15 1.09 15
6 05/23/2013 06:21:36 -74.37,-102.20 126.24 05/23/2013 06:22:43 -74.39, -99.72 126.29 74.37 67
7 05/26/2013 00:16:46 -73.75, -9.65 127.40 05/26/2013 00:15:57 -73.75, -9.56 127.39 2.54 49
8 05/26/2013 01:06:14 73.79, 157.91 52.64 05/26/2013 01:06:36 73.81, 157.92 52.66 2.76 22
9 05/28/2013 19:51:01 -73.73, 56.82 127.88 05/28/2013 19:50:21 -73.72, 56.77 127.88 2.48 40
10 05/28/2013 20:40:29 73.78,-135.63 52.17 05/28/2013 20:41:00 73.78,-135.75 52.17 3.50 31
11 05/31/2013 15:25:16 -73.76, 123.20 128.26 05/31/2013 15:24:44 -73.73, 123.20 128.29 3.45 32
12 05/31/2013 16:14:44 73.81, -69.26 51.79 05/31/2013 16:15:23 73.79, -69.31 51.77 2.13 39




NCC Satellite Simultaneous Nadir Overpasses (SNOs) Prediction Service
